Regional Weather Roundup
Issued by NWS Midland/Odessa, TX

Skip options and go directly to product.
Home | Oldest Version | Previous Version | Current Version | All | Text Only | Save Text | Print | Product List | Glossary Off

Skip product version selection by date and time.   

025
ASUS44 KMAF 270110
RWRMAF
MIDLAND AREA WEATHER ROUNDUP
NATIONAL WEATHER SERVICE MIDLAND TX
700 PM CST MON JAN 26 2015

...IN SOUTHWEST TEXAS AND SOUTHEAST NEW MEXICO...

CITY           SKY/WX    TMP DP  RH WIND       PRES   REMARKS
ALPINE         CLOUDY    52  29  40 CALM      30.34S
ANDREWS        FAIR      53  31  44 W5        30.24R
ARTESIA        MOCLDY    48  37  66 W6        30.27R
BIG SPRING     MOCLDY    54  33  46 S7        30.24R
CARLSBAD       MOCLDY    47  35  63 SW9       30.24R
DRYDEN           N/A     58  38  47 S3        30.23R
FORT STOCKTON  CLOUDY    52  40  63 S5        30.27R
GUAD PASS      NOT AVBL
HOBBS          CLEAR     52  28  40 SW7       30.25R
MARFA          CLOUDY    46  32  57 CALM      30.32S
MIDLAND AIRPK  MOCLDY    57  32  39 SW6       30.23R
MIDLAND INTL   MOCLDY    52  35  52 W6        30.23R
ODESSA         CLOUDY    54  31  41 W5        30.24R
PECOS          CLOUDY    53  38  56 S7        30.25R
PRESIDIO       FAIR      55  38  53 SW3       30.27S
SEMINOLE       MOCLDY    55  31  40 SW6       30.24R
SNYDER         MOCLDY   N/A N/A N/A SW7       30.20S
WINK           CLOUDY    53  31  42 SW8       30.23R
$$
...OTHER STATIONS IN TEXAS...

CITY           SKY/WX    TMP DP  RH WIND       PRES   REMARKS
ABILENE        MOCLDY    61  33  35 W7        30.17R
AMARILLO       CLEAR     53  33  46 W6        30.21R
AUSTIN         MOCLDY    56  44  64 SW3       30.17R
BROWNSVILLE    CLOUDY    62  43  49 E6        30.23R
CORPUS CHRISTI CLOUDY    57  47  69 S8        30.20R
DALLAS FTW     PTCLDY    64  36  35 SW6       30.06F
DEL RIO        MOCLDY    60  38  43 N6        30.21R
EL PASO        CLOUDY    56  29  35 N7        30.26S
HOUSTON INT    MOCLDY    52  41  66 CALM      30.15R
LUBBOCK        MOCLDY    55  33  43 W6        30.20S
SAN ANGELO     MOCLDY    52  41  66 SW8       30.20R
SAN ANTONIO    MOCLDY    65  37  35 SW8       30.19S
WACO           MOCLDY    52  40  63 SW6       30.11S
WICHITA FALLS  NOT AVBL
$$
...OTHER LOCATIONS IN NEW MEXICO...

CITY           SKY/WX    TMP DP  RH WIND       PRES   REMARKS
ALAMAGORDO     MOCLDY    48  32  53 NW3       30.29S
ALBUQUERQUE    PTCLDY    53  26  35 NE5       30.32S
CANNON AFB     MOCLDY    51  36  56 N8        30.26R
CLOVIS         MOCLDY    46  37  71 N10       30.26R
HOLLOMAN AFB   MOCLDY    45  32  61 W3        30.27S
ROSWELL        MOCLDY    51  37  58 SW7       30.26R
RUIDOSO        MOCLDY    46  18  31 W6        30.39R
SANTA FE       CLOUDY    49  25  39 CALM      30.35R
TRUTH OR CONSE CLOUDY    54  26  34 NE3       30.29R
TUCUMCARI      MOCLDY    55  36  48 SW6       30.25R
$$

USA.gov is the U.S. government's official web portal to all federal, state and local government web resources and services.